FW4581 Weather Reports


time (UTC)temp
C
wind
direction
speed
KPH
gust
KPH
rain 1hr
cm
rain 24hr
cm
rain mn
cm
humidity
%
barometer
mb
20260506133045 19 161 1.6 9.7 0.00 0.00 0.00 81 1015.2
20260506131542 18 229 3.2 12.9 0.00 0.00 0.00 80 1015.1
20260506130039 18 178 1.6 9.7 0.00 0.00 0.00 80 1015.2
20260506123035 18 150 3.2 9.7 0.00 0.00 0.00 80 1015.2
20260506121532 18 149 1.6 11.3 0.00 0.00 0.00 80 1015.3
20260506120032 17 219 0.0 12.9 0.00 0.00 0.00 80 1015.1
20260506113025 17 148 0.0 8.0 0.00 0.00 0.00 80 1014.5
20260506111526 17 213 3.2 12.9 0.00 0.00 0.00 81 1014.2
20260506110019 17 184 3.2 11.3 0.00 0.00 0.00 81 1014.2
20260506103020 17 266 3.2 12.9 0.00 0.00 0.00 81 1014.1
20260506101517 17 90 1.6 12.9 0.00 0.00 0.00 81 1014.0
20260506100011 17 156 1.6 12.9 0.00 0.00 0.00 81 1014.0
20260506093014 16 151 1.6 6.4 0.00 0.00 0.00 82 1014.1
20260506091515 16 144 1.6 6.4 0.00 0.00 0.00 82 1014.2
20260506090011 17 146 1.6 6.4 0.00 0.00 0.00 81 1014.5
20260506083010 17 185 1.6 11.3 0.00 0.00 0.00 81 1014.6
20260506081510 17 177 3.2 11.3 0.00 0.00 0.00 81 1014.9
20260506073010 17 233 1.6 11.3 0.00 0.00 0.00 80 1014.9
20260506071508 17 217 0.0 6.4 0.00 0.00 0.00 81 1014.7
20260506061510 17 94 3.2 12.9 0.00 0.00 0.00 78 1015.0
20260506043005 18 205 4.8 12.9 0.00 0.00 0.00 72 1015.4
20260506041504 18 152 1.6 12.9 0.00 0.00 0.00 71 1015.4
20260506040004 18 196 3.2 9.7 0.00 0.00 0.00 70 1015.3
20260506033002 19 154 0.0 8.0 0.00 0.00 0.00 68 1015.3
20260506031501 20 201 3.2 12.9 0.00 0.00 0.00 66 1015.1
20260506030000 20 169 3.2 11.3 0.00 0.00 0.00 66 1015.2
20260506023100 20 199 0.0 11.3 0.00 0.00 0.00 67 1015.0
20260506021559 20 160 1.6 8.0 0.00 0.00 0.00 66 1015.1
20260506020123 20 213 1.6 11.3 0.00 0.00 0.00 66 1015.2
20260506013059 18 184 0.0 0.0 0.00 0.00 0.00 66 1014.7
20260506011601 18 184 0.0 0.0 0.00 0.00 0.00 64 1014.7
20260506010058 19 184 0.0 0.0 0.00 0.00 0.00 63 1014.5
20260506003058 21 184 0.0 3.2 0.00 0.00 0.00 58 1014.0
20260506001607 22 184 0.0 0.0 0.00 0.00 0.00 55 1013.7
20260506000122 22 184 0.0 3.2 0.00 0.00 0.00 52 1013.8
20260505233056 24 187 1.6 9.7 0.00 0.00 0.00 46 1013.8
20260505231558 25 189 0.0 9.7 0.00 0.00 0.00 45 1013.8
20260505230054 25 139 1.6 4.8 0.00 0.00 0.00 45 1013.9
20260505223053 26 229 0.0 4.8 0.00 0.00 0.00 45 1014.0
20260505221558 26 165 1.6 11.3 0.00 0.00 0.00 42 1013.9
20260505220105 26 152 1.6 9.7 0.00 0.00 0.00 41 1014.0
20260505213049 26 191 1.6 11.3 0.00 0.00 0.00 42 1014.2
20260505211616 26 185 3.2 14.5 0.00 0.00 0.00 42 1014.3
20260505210047 26 91 3.2 16.1 0.00 0.00 0.00 40 1014.3
20260505203046 27 243 1.6 11.3 0.00 0.00 0.00 44 1014.6
20260505201545 27 167 4.8 11.3 0.00 0.00 0.00 41 1014.6
20260505200044 26 238 4.8 12.9 0.00 0.00 0.00 40 1014.8
20260505193040 27 336 1.6 12.9 0.00 0.00 0.00 40 1015.1
20260505191539 26 186 4.8 12.9 0.00 0.00 0.00 43 1015.3
20260505190036 26 185 3.2 14.5 0.00 0.00 0.00 42 1015.4
20260505183034 27 125 1.6 17.7 0.00 0.00 0.00 41 1016.3
20260505181544 26 134 3.2 11.3 0.00 0.00 0.00 45 1016.5
20260505180032 26 147 3.2 14.5 0.00 0.00 0.00 43 1016.5
20260505173029 26 207 3.2 22.5 0.00 0.00 0.00 44 1016.2
20260505171537 26 138 4.8 14.5 0.00 0.00 0.00 45 1016.4
20260505170027 25 360 4.8 12.9 0.00 0.00 0.00 50 1016.5
20260505163025 26 230 0.0 12.9 0.00 0.00 0.00 53 1016.9
20260505161523 26 150 1.6 9.7 0.00 0.00 0.00 55 1017.0
20260505153032 24 178 3.2 8.0 0.00 0.00 0.00 59 1017.5
20260505151514 23 294 3.2 11.3 0.00 0.00 0.00 61 1017.5